Snowfall_Accumulation
0.0 0.0 0.0 0.0 0.0 0.0 0.0 0.0 0.0 0.0 0.0 0.0 0.0 0.0 0.0 0.0 0.0 0.0 0.0 0.0 0.0 0.0 0.0 0.0 0.0 0.0 0.0 0.0 0.0 0.0 0.0 0.0 0.0 0.0 0.0 0.0 0.0 0.0 0.0 0.0 0.0 0.0 0.0 0.0
0.0 0.0 0.0 0.0 0.0 0.0 0.0 0.0 0.0 0.0 0.0 0.0 0.0 0.0 0.0 0.0 0.0 0.0 0.0 0.0 0.0 0.0 0.0 0.0 0.0 0.0 0.0 0.0 0.0 0.0 0.0 0.0 0.0 0.0 0.0 0.0 0.0 0.0 0.0 0.0 0.0 0.0 0.0 0.0
0.0 0.0 0.0 0.0 0.0 0.0 0.0 0.0 0.0 0.0 0.0 0.0 0.0 0.0 0.0 0.0 0.0 0.0 0.0 0.0 0.0 0.0 0.0 0.0 0.0 0.0 0.0 0.0 0.0 0.0 0.0 0.0 0.0 0.0 0.0 0.0 0.0 0.0 0.0 0.0 0.0 0.0 0.0 0.0
0.0 0.0 0.0 0.0 0.0 0.0 0.0 0.0 0.0 0.0 0.0 0.0 0.0 0.0 0.0 0.0 0.0 0.0 0.0 0.0 0.0 0.0 0.0 0.0 0.0 0.0 0.0 0.0 0.0 0.0 0.0 0.0 0.0 0.0 0.0 0.0 0.0 0.0 0.0 0.0 0.0 0.0 0.0 0.0
0.0 0.0 0.0 0.0 0.0 0.0 0.0 0.0 0.0 0.0 0.0 0.0 0.0 0.0 0.0 0.0 0.0 0.0 0.0 0.0 0.0 0.0 0.0 0.0 0.0 0.0 0.0 0.0 0.0 0.0 0.0 0.0 0.0 0.0 0.0 0.0 0.0 0.0 0.0 0.0 0.0 0.0 0.0 0.0
0.0 0.0 0.0 0.0 0.0 0.0 0.0 0.0 0.0 0.0 0.0 0.9 0.0 0.0 0.0 0.0 0.0 0.0 0.0 0.0 0.0 0.0 0.0 0.0 0.0 0.0 0.0 0.0 0.0 0.0 0.0 0.0 0.0 0.0 0.0 0.0 0.0 0.0 0.0 0.0 0.0 0.0 0.0 0.0
0.0 0.0 0.0 0.0 0.0 0.0 0.0 0.0 3.4 4.9 7.1 0.9 0.0 0.0 0.0 0.0 0.0 0.0 0.0 0.0 0.0 0.0 0.0 0.0 0.0 0.0 0.0 0.0 0.0 0.0 0.0 0.0 0.0 0.0 0.0 0.0 0.0 0.0 0.0 0.0 0.0 0.0 0.0 0.0
1.2 4.0 0.0 0.0 0.0 0.0 0.0 0.0 0.9 0.7 0.7 0.0 0.0 0.1 0.0 0.0 0.0 0.0 0.0 0.0 0.0 0.0 0.0 0.0 0.0 0.0 0.0 0.0 0.0 0.0 0.0 0.0 0.0 0.0 0.0 0.0 0.0 0.0 0.0 0.0 0.0 0.0 0.0 0.0
0.5 0.2 0.0 0.0 0.0 0.0 0.0 0.3 0.0 0.2 1.4 0.7 0.3 0.0 0.0 0.0 0.0 0.0 0.0 0.0 0.0 0.0 0.0 0.0 0.0 0.0 0.0 0.0 0.0 0.0 0.0 0.0 0.0 0.0 0.0 0.0 0.0 0.0 0.0 0.0 0.0 0.0 0.0 0.0
0.0 0.5 0.0 0.0 0.0 0.0 0.0 0.0 1.9 1.6 6.1 2.5 0.1 0.0 0.0 0.0 0.0 0.0 0.0 0.0 0.0 0.0 0.0 0.0 0.0 0.0 0.0 0.0 0.0 0.0 0.0 0.0 0.0 0.0 0.0 0.0 0.0 0.0 0.0 0.0 0.0 0.0 0.0 0.0
0.0 0.1 0.1 0.0 0.0 0.0 0.0 0.0 0.0 0.4 1.5 1.3 0.9 0.0 0.0 0.0 0.0 0.0 0.0 0.0 0.0 0.0 0.0 0.0 0.0 0.0 0.0 0.0 0.0 0.0 0.0 0.0 0.0 0.0 0.0 0.0 0.0 0.0 0.0 0.0 0.0 0.0 0.0 0.0
0.0 0.0 1.5 0.1 0.0 0.0 0.0 0.0 0.0 0.8 0.3 0.6 1.1 0.8 0.0 0.0 0.0 0.0 0.0 0.0 0.0 0.0 0.0 0.0 0.0 0.0 0.0 0.0 0.0 0.0 0.0 0.0 0.0 0.0 0.0 0.0 0.0 0.0 0.0 0.0 0.0 0.0 0.0 0.0
0.0 1.4 6.1 4.0 2.4 0.0 0.0 0.0 0.0 0.0 0.1 0.2 2.1 0.2 0.0 0.0 0.0 0.0 0.0 0.0 0.0 0.0 0.0 0.0 0.0 0.0 0.0 0.0 0.0 0.0 0.0 0.0 0.0 0.0 0.0 0.0 0.0 0.0 0.0 0.0 0.0 0.0 0.0 0.0
nan 0.0 0.1 0.2 0.1 0.0 0.0 0.0 0.0 0.0 3.6 0.1 0.1 0.0 0.0 0.0 0.0 0.0 0.0 0.0 0.0 0.0 0.0 0.0 0.0 0.0 0.0 0.0 0.0 0.0 0.0 0.0 0.0 0.0 0.0 0.0 0.0 0.0 0.0 0.0 0.0 0.0 0.0 0.0
0.0 2.7 0.0 0.0 0.0 0.0 0.0 0.0 0.0 0.1 0.0 0.3 0.0 0.0 0.0 0.0 0.0 0.0 0.0 0.0 0.0 0.0 0.0 0.0 0.0 0.0 0.0 0.0 0.0 0.0 0.0 0.0 0.0 0.0 0.0 0.0 0.0 0.0 0.0 0.0 0.0 0.0 0.0 0.0
0.0 2.5 0.1 2.6 0.0 0.0 0.1 0.0 0.0 0.0 0.0 0.0 0.0 0.0 0.0 0.0 0.0 0.0 0.0 0.0 0.0 0.0 0.0 0.0 0.0 0.0 0.0 0.0 0.0 0.0 0.0 0.0 0.0 0.0 0.0 0.0 0.0 0.0 0.0 0.0 0.0 0.0 0.0 0.0
0.0 1.2 8.3 15.2 0.1 0.2 13.2 0.2 0.0 0.0 0.0 0.0 0.0 0.0 0.0 0.0 0.0 0.0 0.0 0.0 0.0 0.0 0.0 0.0 0.0 0.0 0.0 0.0 0.0 0.0 0.0 0.0 0.0 0.0 0.0 0.0 0.0 0.0 0.0 0.0 0.0 0.0 0.0 0.0
0.0 0.4 1.9 15.8 7.1 43.6 1.6 0.0 0.0 0.0 0.0 0.0 0.0 0.0 0.0 0.0 0.0 0.0 0.0 0.0 0.0 0.0 0.0 0.0 0.0 0.0 0.0 0.0 0.0 0.0 0.0 0.0 0.0 0.0 0.0 0.1 0.1 0.3 0.4 0.3 0.3 0.2 0.1 0.1
0.0 0.1 14.9 29.2 16.3 0.3 0.0 0.0 0.0 0.0 0.0 0.0 0.0 0.0 0.0 0.0 0.0 0.0 0.0 0.0 0.0 0.0 0.0 0.0 0.0 0.0 0.0 0.1 0.1 0.2 0.3 0.3 0.3 0.3 0.4 0.4 0.4 0.5 0.4 0.5 0.4 0.4 0.4 0.3
0.0 0.0 0.5 24.8 23.5 22.5 0.0 0.0 0.0 0.0 0.4 0.0 0.0 0.0 0.0 0.0 0.0 0.0 0.0 0.0 0.0 0.0 0.0 0.0 0.1 0.2 0.2 0.2 0.1 0.2 0.4 0.5 0.5 0.4 0.5 0.4 0.4 0.8 0.7 0.6 0.9 0.9 0.6 0.8
8.5 13.1 24.6 20.1 18.6 5.2 0.0 0.0 0.0 3.3 0.1 0.1 0.0 0.0 0.0 0.0 0.0 0.0 0.0 0.0 0.0 0.0 0.2 0.3 0.5 0.3 0.7 1.4 1.6 1.8 1.6 1.7 1.4 1.6 1.4 1.4 1.2 1.6 0.9 1.0 0.9 1.4 1.7 1.2
4.5 13.2 24.3 16.0 20.5 26.9 0.0 0.0 0.0 0.0 0.0 0.0 0.0 0.0 0.0 0.0 0.0 0.0 0.0 0.0 0.1 0.2 0.3 0.3 0.3 0.4 0.6 0.8 0.7 0.9 0.9 1.1 1.8 2.1 2.3 2.5 2.5 2.0 1.6 2.7 2.3 3.1 2.7 3.0
6.5 0.7 3.7 0.5 2.4 0.0 0.0 0.0 0.0 0.0 0.0 0.0 0.0 0.0 0.0 0.0 0.0 0.0 0.0 0.0 0.0 0.2 0.3 0.5 0.8 1.3 1.3 2.2 1.8 2.7 2.8 3.0 3.4 4.3 5.4 5.0 4.1 3.3 2.8 3.8 3.4 4.9 3.5 4.9
0.4 0.5 3.5 2.9 0.8 0.1 0.0 0.0 0.0 0.0 0.0 0.0 0.0 0.0 0.0 0.0 0.0 0.0 0.0 0.0 0.1 0.6 1.0 1.2 1.9 2.8 3.2 2.9 3.0 3.0 2.9 3.2 6.9 6.7 4.4 3.6 4.1 3.3 3.7 3.8 4.0 5.8 5.6 5.0
1.4 1.5 3.4 2.4 0.8 0.8 0.2 0.0 0.0 0.0 0.0 0.0 0.0 0.0 0.0 0.0 0.0 0.0 0.1 0.3 0.4 0.9 2.1 3.3 5.0 5.4 4.9 4.8 4.7 5.3 4.4 4.2 5.2 5.9 4.3 4.6 5.1 5.3 4.4 3.7 4.8 5.2 3.2 6.0
1.9 2.3 2.6 2.2 1.0 0.6 0.1 0.5 0.2 0.3 0.1 0.1 0.1 0.3 0.5 0.4 0.5 0.9 1.1 0.7 1.0 1.8 2.3 3.5 3.9 4.0 4.7 5.4 5.8 6.8 6.9 5.5 5.8 4.5 5.8 4.8 4.9 4.6 4.5 5.6 6.1 nan nan nan
Water_Equivalent
0.00 0.00 0.00 0.00 0.00 0.00 0.00 0.00 0.00 0.00 0.00 0.00 0.00 0.00 0.00 0.00 0.00 0.00 0.00 0.00 0.00 0.00 0.00 0.00 0.00 0.00 0.00 0.00 0.00 0.00 0.00 0.00 0.00 0.00 0.00 0.00 0.00 0.00 0.00 0.00 0.00 0.00 0.00 0.00
0.00 0.00 0.00 0.00 0.00 0.00 0.00 0.00 0.00 0.00 0.00 0.00 0.00 0.00 0.00 0.00 0.00 0.00 0.00 0.00 0.00 0.00 0.00 0.00 0.00 0.00 0.00 0.00 0.00 0.00 0.00 0.00 0.00 0.00 0.00 0.00 0.00 0.00 0.00 0.00 0.00 0.00 0.00 0.00
0.00 0.00 0.00 0.00 0.00 0.00 0.00 0.00 0.00 0.00 0.00 0.00 0.00 0.00 0.00 0.00 0.00 0.00 0.00 0.00 0.00 0.00 0.00 0.00 0.00 0.00 0.00 0.00 0.00 0.00 0.00 0.00 0.00 0.00 0.00 0.00 0.00 0.00 0.00 0.00 0.00 0.00 0.00 0.00
0.00 0.00 0.00 0.00 0.00 0.00 0.00 0.00 0.00 0.00 0.00 0.00 0.00 0.00 0.00 0.00 0.00 0.00 0.00 0.00 0.00 0.00 0.00 0.00 0.00 0.00 0.00 0.00 0.00 0.00 0.00 0.00 0.00 0.00 0.00 0.00 0.00 0.00 0.00 0.00 0.00 0.00 0.00 0.00
0.01 0.00 0.00 0.00 0.00 0.00 0.00 0.00 0.00 0.00 0.00 0.00 0.00 0.00 0.00 0.00 0.00 0.00 0.00 0.00 0.00 0.00 0.00 0.00 0.00 0.00 0.00 0.00 0.00 0.00 0.00 0.00 0.00 0.00 0.00 0.00 0.00 0.00 0.00 0.00 0.00 0.00 0.00 0.00
0.00 0.00 0.00 0.00 0.00 0.00 0.00 0.00 0.00 0.00 0.00 0.24 0.00 0.00 0.00 0.00 0.00 0.00 0.00 0.00 0.00 0.00 0.00 0.00 0.00 0.00 0.00 0.00 0.00 0.00 0.00 0.00 0.00 0.00 0.00 0.00 0.00 0.00 0.00 0.00 0.00 0.00 0.00 0.00
0.00 0.00 0.00 0.00 0.00 0.00 0.00 0.00 0.74 0.95 1.28 0.19 0.00 0.00 0.00 0.00 0.00 0.00 0.00 0.00 0.00 0.00 0.00 0.00 0.00 0.00 0.00 0.00 0.00 0.00 0.00 0.00 0.00 0.00 0.00 0.00 0.00 0.00 0.00 0.00 0.00 0.00 0.00 0.00
0.34 0.81 0.00 0.00 0.00 0.01 0.00 0.00 0.23 0.12 0.17 0.02 0.00 0.02 0.00 0.00 0.00 0.00 0.00 0.00 0.00 0.00 0.00 0.00 0.00 0.00 0.00 0.00 0.00 0.00 0.00 0.00 0.00 0.00 0.00 0.00 0.00 0.00 0.00 0.00 0.00 0.00 0.00 0.00
0.15 0.04 0.00 0.00 0.00 0.00 0.01 0.13 0.00 0.04 0.32 0.19 0.06 0.00 0.00 0.00 0.00 0.00 0.00 0.00 0.00 0.00 0.00 0.00 0.00 0.00 0.00 0.00 0.00 0.00 0.00 0.00 0.00 0.00 0.00 0.00 0.00 0.00 0.00 0.00 0.00 0.00 0.00 0.00
0.00 0.10 0.00 0.00 0.00 0.00 0.00 0.00 0.45 0.43 1.03 0.40 0.01 0.00 0.00 0.00 0.00 0.00 0.00 0.00 0.00 0.00 0.00 0.00 0.00 0.00 0.00 0.00 0.00 0.00 0.00 0.00 0.00 0.00 0.00 0.00 0.00 0.00 0.00 0.00 0.00 0.00 0.00 0.00
0.00 0.01 0.05 0.00 0.00 0.00 0.00 0.00 0.00 0.11 0.39 0.28 0.20 0.01 0.00 0.00 0.00 0.00 0.00 0.00 0.00 0.00 0.00 0.00 0.00 0.00 0.00 0.00 0.00 0.00 0.00 0.00 0.00 0.00 0.00 0.00 0.00 0.00 0.00 0.00 0.00 0.00 0.00 0.00
0.00 0.00 0.36 0.05 0.00 0.00 0.00 0.00 0.00 0.20 0.06 0.15 0.26 0.15 0.00 0.00 0.00 0.00 0.00 0.00 0.00 0.00 0.00 0.00 0.00 0.00 0.00 0.00 0.00 0.00 0.00 0.00 0.00 0.00 0.00 0.00 0.00 0.00 0.00 0.00 0.00 0.00 0.00 0.00
0.00 0.40 1.24 0.78 0.44 0.00 0.00 0.00 0.00 0.00 0.02 0.03 0.47 0.04 0.00 0.00 0.00 0.00 0.00 0.00 0.00 0.00 0.00 0.00 0.00 0.00 0.00 0.00 0.00 0.00 0.00 0.00 0.00 0.00 0.00 0.00 0.00 0.00 0.00 0.00 0.00 0.00 0.00 0.00
nan 0.01 0.03 0.07 0.04 0.00 0.01 0.00 0.00 0.00 0.86 0.05 0.03 0.00 0.00 0.00 0.00 0.00 0.00 0.00 0.00 0.00 0.00 0.00 0.00 0.00 0.00 0.00 0.00 0.00 0.00 0.00 0.00 0.00 0.00 0.00 0.00 0.00 0.00 0.00 0.00 0.00 0.00 0.00
0.00 0.64 0.00 0.00 0.00 0.00 0.00 0.00 0.00 0.02 0.00 0.08 0.00 0.00 0.00 0.00 0.00 0.00 0.00 0.00 0.00 0.00 0.00 0.00 0.00 0.00 0.00 0.00 0.00 0.00 0.00 0.00 0.00 0.00 0.00 0.00 0.00 0.00 0.00 0.00 0.00 0.00 0.00 0.00
0.00 0.64 0.03 0.50 0.01 0.00 0.02 0.00 0.00 0.00 0.00 0.00 0.00 0.00 0.00 0.00 0.00 0.00 0.00 0.00 0.00 0.00 0.00 0.00 0.00 0.00 0.00 0.00 0.00 0.00 0.00 0.00 0.00 0.00 0.00 0.00 0.00 0.00 0.00 0.00 0.00 0.00 0.00 0.00
0.01 0.32 2.35 3.45 0.03 0.05 2.24 0.04 0.00 0.00 0.00 0.00 0.00 0.00 0.00 0.00 0.00 0.00 0.00 0.00 0.00 0.00 0.00 0.00 0.00 0.00 0.00 0.00 0.00 0.00 0.00 0.00 0.00 0.00 0.00 0.01 0.01 0.01 0.01 0.01 0.01 0.01 0.01 0.01
0.02 0.13 0.68 3.55 1.77 6.58 0.31 0.00 0.00 0.00 0.00 0.00 0.00 0.00 0.00 0.00 0.00 0.00 0.00 0.00 0.00 0.00 0.00 0.00 0.00 0.00 0.00 0.00 0.00 0.00 0.00 0.00 0.00 0.01 0.01 0.02 0.02 0.05 0.06 0.06 0.05 0.04 0.03 0.03
0.00 0.03 2.98 5.03 2.96 0.06 0.00 0.00 0.00 0.00 0.00 0.00 0.00 0.00 0.00 0.00 0.00 0.00 0.00 0.00 0.00 0.00 0.00 0.00 0.00 0.00 0.00 0.01 0.02 0.03 0.05 0.05 0.05 0.05 0.05 0.06 0.06 0.08 0.06 0.09 0.06 0.06 0.06 0.05
0.00 0.00 0.15 4.93 4.62 3.16 0.00 0.00 0.00 0.00 0.10 0.00 0.00 0.00 0.00 0.00 0.00 0.00 0.00 0.00 0.00 0.00 0.00 0.01 0.02 0.03 0.03 0.02 0.02 0.04 0.05 0.06 0.06 0.06 0.06 0.06 0.06 0.13 0.11 0.09 0.14 0.14 0.12 0.14
2.22 3.25 5.24 4.20 3.79 1.17 0.01 0.00 0.00 0.54 0.02 0.03 0.00 0.00 0.00 0.00 0.00 0.00 0.00 0.00 0.00 0.01 0.03 0.04 0.07 0.05 0.11 0.20 0.22 0.21 0.18 0.18 0.17 0.18 0.16 0.17 0.15 0.24 0.12 0.16 0.15 0.25 0.32 0.20
0.80 2.54 4.68 3.00 3.85 4.18 0.00 0.00 0.00 0.01 0.01 0.01 0.00 0.00 0.00 0.00 0.00 0.00 0.00 0.00 0.01 0.03 0.04 0.04 0.04 0.05 0.06 0.09 0.09 0.10 0.10 0.12 0.21 0.24 0.26 0.31 0.40 0.32 0.27 0.59 0.42 0.63 0.53 0.59
1.17 0.17 0.96 0.12 0.64 0.00 0.00 0.01 0.00 0.00 0.01 0.01 0.00 0.00 0.00 0.00 0.00 0.00 0.00 0.00 0.01 0.02 0.04 0.05 0.10 0.16 0.14 0.27 0.23 0.28 0.26 0.28 0.35 0.55 0.78 0.75 0.66 0.62 0.61 0.88 0.64 0.92 0.73 0.90
0.09 0.12 0.84 0.65 0.19 0.02 0.01 0.00 0.00 0.00 0.00 0.00 0.00 0.00 0.00 0.00 0.00 0.00 0.00 0.00 0.01 0.07 0.12 0.15 0.22 0.28 0.31 0.28 0.31 0.33 0.30 0.33 1.03 1.01 0.57 0.45 0.59 0.51 0.59 0.74 0.80 1.17 1.03 0.87
0.27 0.28 0.57 0.47 0.14 0.14 0.06 0.01 0.00 0.00 0.00 0.00 0.00 0.00 0.00 0.00 0.00 0.00 0.03 0.05 0.05 0.11 0.20 0.31 0.43 0.44 0.43 0.38 0.37 0.49 0.42 0.45 0.64 0.72 0.42 0.53 0.71 0.80 0.50 0.43 0.76 0.76 0.48 1.03
0.23 0.27 0.43 0.45 0.15 0.09 0.03 0.09 0.03 0.03 0.01 0.01 0.01 0.04 0.06 0.06 0.06 0.10 0.13 0.08 0.11 0.19 0.23 0.30 0.33 0.31 0.34 0.41 0.45 0.59 0.75 0.67 0.71 0.45 0.62 0.58 0.59 0.54 0.51 0.61 0.69 nan nan nan
SL_Ratio
nan nan nan nan nan nan nan nan nan nan nan nan nan nan nan nan nan nan nan nan nan nan nan nan nan nan nan nan nan nan nan nan nan nan nan nan nan nan nan nan nan nan nan nan
nan nan nan nan nan nan nan nan nan nan nan nan nan nan nan nan nan nan nan nan nan nan nan nan nan nan nan nan nan nan nan nan nan nan nan nan nan nan nan nan nan nan nan nan
nan nan nan nan nan nan nan nan nan nan nan nan nan nan nan nan nan nan nan nan nan nan nan nan nan nan nan nan nan nan nan nan nan nan nan nan nan nan nan nan nan nan nan nan
nan nan nan nan nan nan nan nan nan nan nan nan nan nan nan nan nan nan nan nan nan nan nan nan nan nan nan nan nan nan nan nan nan nan nan nan nan nan nan nan nan nan nan nan
2.3 nan nan nan nan nan nan nan nan nan nan 3.8 nan 4.0 nan nan nan nan nan nan nan nan nan nan nan nan nan nan nan nan nan nan nan nan nan nan nan nan nan nan nan nan nan nan
nan nan nan nan nan nan nan nan nan nan nan 3.9 nan nan nan nan nan nan nan nan nan nan nan nan nan nan nan nan nan nan nan nan nan nan nan nan nan nan nan nan nan nan nan nan
nan nan nan nan nan nan nan 2.7 4.6 5.1 5.6 4.8 nan nan nan nan nan nan nan nan nan nan nan nan nan nan nan nan nan nan nan nan nan nan nan nan nan nan nan nan nan nan nan nan
3.6 4.9 nan nan 0.0 2.6 nan 0.0 4.0 5.9 4.3 2.9 nan 3.3 nan nan nan nan nan nan nan nan nan nan nan nan nan nan nan nan nan nan nan nan nan nan nan nan nan nan nan nan nan nan
3.4 4.0 nan nan nan nan 2.8 2.5 nan 4.3 4.3 3.9 4.3 nan nan nan nan nan nan nan nan nan nan nan nan nan nan nan nan nan nan nan nan nan nan nan nan nan nan nan nan nan nan nan
5.0 4.4 nan nan nan nan nan nan 4.3 3.8 6.0 6.2 5.3 nan nan nan nan nan nan nan nan nan nan nan nan nan nan nan nan nan nan nan nan nan nan nan nan nan nan nan nan nan nan nan
nan 4.5 2.8 nan nan 0.0 nan nan 5.0 3.4 3.8 4.6 4.4 5.2 nan nan nan nan nan nan nan nan nan nan nan nan nan nan nan nan nan nan nan nan nan nan nan nan nan nan nan nan nan nan
nan 10.0 4.1 3.0 nan nan nan nan nan 4.1 4.9 4.2 4.4 5.4 nan nan nan nan nan nan nan nan nan nan nan nan nan nan nan nan nan nan nan nan nan nan nan nan nan nan nan nan nan nan
nan 3.6 4.9 5.1 5.4 2.1 nan nan nan nan 3.1 4.4 4.4 4.0 nan nan nan nan nan nan nan nan nan nan nan nan nan nan nan nan nan nan nan nan nan nan nan nan nan nan nan nan nan nan
nan 3.3 3.6 3.5 3.7 nan 3.4 nan nan nan 4.2 2.9 2.8 nan nan nan nan nan nan nan nan nan nan nan nan nan nan nan nan nan nan nan nan nan nan nan nan nan nan nan nan nan nan nan
nan 4.2 nan nan nan nan nan nan nan 4.1 0.0 4.4 nan nan nan nan nan nan nan nan nan nan nan nan nan nan nan nan nan nan nan nan nan nan nan nan nan nan nan nan nan nan nan nan
nan 3.8 4.0 5.1 3.6 4.0 3.7 nan nan nan nan nan nan nan nan nan nan nan nan nan nan nan nan nan nan nan nan nan nan nan nan nan nan nan nan nan nan nan nan nan nan 2.2 3.3 nan
2.9 3.6 3.5 4.4 4.3 4.1 5.9 4.6 nan nan nan nan nan nan nan nan nan nan nan nan nan nan nan nan nan nan nan nan nan nan nan nan nan nan 3.1 3.3 3.6 3.4 3.1 2.8 2.6 2.5 4.0 4.6
2.6 3.0 2.8 4.4 4.0 6.6 5.3 nan nan nan nan nan nan nan nan nan nan nan nan nan nan nan nan nan nan nan nan nan nan nan nan 4.0 4.4 4.6 3.9 4.2 4.7 5.6 6.2 6.2 6.0 5.7 5.4 5.2
nan 2.9 5.0 5.8 5.5 4.6 nan nan nan nan nan nan nan nan nan nan nan nan nan nan nan nan nan nan nan nan nan 6.2 5.8 5.5 6.6 6.6 5.8 5.7 7.0 7.1 6.6 5.9 6.3 5.6 6.2 6.3 5.9 5.4
nan nan 3.4 5.0 5.1 7.1 nan nan nan nan 3.7 nan nan nan nan nan nan nan nan nan nan nan nan 5.6 6.0 5.9 6.0 6.2 5.8 6.2 8.0 7.9 8.2 8.0 7.9 7.3 6.6 6.0 6.6 6.9 6.5 6.1 5.3 5.9
3.8 4.0 4.7 4.8 4.9 4.5 2.4 2.0 nan 6.1 3.4 2.6 nan nan nan nan nan nan nan nan nan 6.0 6.0 6.4 7.2 5.5 5.9 7.0 7.4 8.5 8.5 9.1 8.1 8.9 8.9 8.4 7.8 6.5 6.9 6.2 6.2 5.7 5.1 5.7
5.7 5.2 5.2 5.3 5.3 6.5 2.7 3.3 4.3 2.4 2.8 2.6 0.0 nan nan nan nan nan nan nan 7.0 7.5 9.1 8.3 7.3 8.7 9.3 8.8 8.4 8.6 9.3 8.8 8.9 8.6 8.7 8.1 6.3 6.1 6.0 4.6 5.4 4.9 5.0 5.2
5.5 4.3 3.9 3.9 3.8 3.3 nan 3.2 nan 2.5 2.6 3.2 nan nan nan nan nan nan nan nan 9.4 9.5 9.8 9.6 7.7 8.1 9.4 8.2 8.2 9.4 10.5 10.7 9.7 7.8 6.9 6.6 6.2 5.2 4.6 4.3 5.3 5.3 4.8 5.4
4.6 4.4 4.2 4.5 4.2 3.6 3.3 nan nan nan nan nan nan 0.0 2.0 5.0 0.0 0.0 nan 5.7 9.7 8.4 8.3 8.2 8.9 9.9 10.3 10.2 9.8 9.1 9.8 9.7 6.7 6.6 7.6 7.8 7.0 6.4 6.2 5.2 5.0 4.9 5.4 5.8
5.2 5.4 6.0 5.1 6.1 5.8 4.4 3.3 nan nan nan nan nan 0.0 5.0 0.0 0.0 0.0 4.2 5.2 7.3 8.7 10.2 10.8 11.6 12.2 11.5 12.6 12.6 10.9 10.6 9.3 8.1 8.1 10.3 8.7 7.1 6.6 8.8 8.5 6.3 6.9 6.8 5.9
8.0 8.7 6.0 5.0 6.8 6.6 4.9 5.8 6.6 8.7 8.3 5.0 5.2 7.7 7.6 7.6 8.2 8.8 8.8 8.5 8.8 9.6 10.1 11.7 11.9 12.8 13.7 13.3 12.9 11.6 9.3 8.1 8.2 9.8 9.4 8.1 8.3 8.6 8.7 9.2 8.9 nan nan nan